Back to catalog

COSMOS 2251 DEB

AliveVLEO
NORAD 37518·DEBRIS·🇷🇺 Russia

Launched Jun 16, 1993 from Plesetsk Cosmodrome

Loading…

Next Passes (next 24 hours)

TLE

StaleSource: Space-Track

Epoch: Sep 7, 2026, 07:02 UTC

1 37518U 93036BMX 26250.29343112  .00137269  00000-0  27957-2 0  9995
2 37518  73.9600  98.3033 0019485 157.8491 202.3566 15.45465203699989

Track COSMOS 2251 DEB in real time with AllMySat

Download on the App Store